This demonstration page uses our WeatherBlox Daily Observations layout. Learn more.

38.88101, -77.10428

Hourly Observations for October 6, 2017

Temp ( °F °C ) Dew Point ( °F °C ) Humidity (%) Winds ( mph kmh ) Pressure ( in mb ) Visibility ( mi km ) Precip ( " mm )
12:52 am 00:52 Mostly Cloudy 69 20.6 66 18.9 90 90 S 3 6 30.12 1020 10 16.0934 0 0
1:52 am 01:52 Mostly Cloudy 69 20.6 64 17.8 84 84 SSW 3 6 30.11 1020 10 16.0934 0 0
2:52 am 02:52 Cloudy 69 20.6 64 17.8 84 84 S 6 9 30.1 1019 10 16.0934 0 0
3:52 am 03:52 Cloudy 68 20 62 16.7 81 81 SW 3 6 30.1 1019 10 16.0934 0 0
4:52 am 04:52 Cloudy 67 19.4 62 16.7 84 84 Calm 30.11 1020 10 16.0934 0 0
5:52 am 05:52 Mostly Cloudy 66 18.9 62 16.7 87 87 SSW 5 7 30.12 1020 10 16.0934 0 0
6:52 am 06:52 Mostly Cloudy 66 18.9 62 16.7 87 87 S 5 7 30.13 1020 10 16.0934 0 0
7:52 am 07:52 Mostly Cloudy 65 18.3 62 16.7 90 90 S 6 9 30.13 1020 10 16.0934 0 0
8:52 am 08:52 Mostly Cloudy 68 20 62 16.7 81 81 SSW 8 13 30.14 1021 10 16.0934 0 0
9:52 am 09:52 Mostly Cloudy 69 20.6 63 17.2 81 81 S 7 11 30.14 1021 10 16.0934 0 0
10:52 am 10:52 Mostly Cloudy 72 22.2 63 17.2 73 73 S 7 11 30.13 1020 10 16.0934 0 0
11:52 am 11:52 Mostly Cloudy 75 23.9 62 16.7 64 64 S 6 9 30.12 1020 10 16.0934 0 0
12:52 pm 12:52 Mostly Cloudy 80 26.7 63 17.2 56 56 SSE 5 7 30.1 1019 10 16.0934 0 0
1:52 pm 13:52 Mostly Cloudy 80 26.7 62 16.7 54 54 S 9 15 30.08 1019 10 16.0934 0 0
2:52 pm 14:52 Mostly Cloudy 82 27.8 63 17.2 53 53 S 9 15 30.07 1018 10 16.0934 0 0
3:52 pm 15:52 Partly Cloudy 82 27.8 63 17.2 53 53 S 10 17 30.06 1018 10 16.0934 0 0
4:52 pm 16:52 Mostly Sunny 81 27.2 64 17.8 57 57 S 10 17 30.04 1017 10 16.0934 0 0
5:52 pm 17:52 Mostly Cloudy 79 26.1 64 17.8 60 60 S 7 11 30.04 1017 10 16.0934 0 0
6:52 pm 18:52 Mostly Cloudy 78 25.6 62 16.7 58 58 S 7 11 30.04 1017 10 16.0934 0 0
7:52 pm 19:52 Cloudy 75 23.9 65 18.3 71 71 S 5 7 30.05 1018 10 16.0934 0 0
8:52 pm 20:52 Partly Cloudy 76 24.4 62 16.7 62 62 Calm 30.06 1018 10 16.0934 0 0
9:52 pm 21:52 Partly Cloudy 74 23.3 63 17.2 69 69 ESE 5 7 30.07 1018 10 16.0934 0 0
10:52 pm 22:52 Partly Cloudy 72 22.2 65 18.3 79 79 Calm 30.09 1019 10 16.0934 0 0
11:52 pm 23:52 Mostly Cloudy 71 21.7 65 18.3 81 81 S 7 11 30.09 1019 10 16.0934 0 0

Powered by AerisWeather